Weerstation Grootegast  Weerstation Grootegast


15 daagse weersverwachting Stavanger (NO)

  • Overzicht
  • Per uur
  • 15 dagen
  • Extra
  • Vergelijk
  • Kaarten
  • Dagkaart
  • Meer »
  • Info
  • Statistieken
  • Directe link
    Temp 6h Neerslag Wind  
 04:26     22:52    Daglengte: 18:26 Vandaag
02:00
12°
 
3
08:00
14°
 
6
14:00
15°
 
7
20:00
14°
1.1 mm
8
 04:26     22:52    Daglengte: 18:26 Morgen
02:00
13°
1.7 mm
6
08:00
14°
3.7 mm
5
14:00
17°
 
6
20:00
15°
 
5
 04:26     22:53    Daglengte: 18:27 Woensdag 19 Jun
02:00
12°
 
3
08:00
14°
 
2
14:00
17°
 
3
20:00
14°
 
3
Locatie info
Region: Rogaland
Latitude: 58.9710°N
Longitude: 5.7306°E
15 masl
Postcode: 4006
Temp/Neerslag /Baro Onweer/Dauwpunt
    Temp Baro 1h Neerslag Dauwpunt Wind UV Bewolking  
 04:26     22:52    Daglengte: 18:26 Vandaag
02:00
12°
1016.2 hPa   9.9°
3
Windvlaag: 5.3 m/s
12%
03:00
12°
1015.8 hPa   9.4°
3
Windvlaag: 4.8 m/s
3%
04:00
12°
1015.5 hPa   8.9°
3
Windvlaag: 4.3 m/s
20%
05:00
12°
1015.2 hPa   8.6°
3
Windvlaag: 4.3 m/s
46%
06:00
13°
1015.1 hPa   8.4°
4
Windvlaag: 5.9 m/s
28%
07:00
14°
1014.8 hPa
21%
8.5°
5
Windvlaag: 7.8 m/s
46%
08:00
14°
1014.6 hPa
21%
9.4°
6
Windvlaag: 10.1 m/s
78%
09:00
15°
1014.2 hPa
28%
10.7°
7
Windvlaag: 11.8 m/s
70%
10:00
15°
1014.1 hPa
41%
11.7°
7
Windvlaag: 12.6 m/s
66%
11:00
15°
1013.9 hPa
45%
12.8°
8
Windvlaag: 13.3 m/s
72%
12:00
16°
1013.9 hPa
77%
13.2°
8
Windvlaag: 13.1 m/s
79%
13:00
15°
1014.0 hPa
82%
13.3°
8
Windvlaag: 13.3 m/s
88%
14:00
15°
1014.1 hPa
82%
12.9°
7
Windvlaag: 13.5 m/s
79%
15:00
15°
1014.0 hPa
82%
12.5°
8
Windvlaag: 12.8 m/s
77%
16:00
15°
1013.9 hPa 0.2 mm
82%
11.9°
8
Windvlaag: 12.7 m/s
88%
17:00
14°
1013.7 hPa 0.3 mm
82%
11.6°
8
Windvlaag: 12.5 m/s
89%
18:00
14°
1013.7 hPa 0.2 mm
82%
11.6°
8
Windvlaag: 12 m/s
89%
19:00
14°
1013.8 hPa
82%
11.4°
8
Windvlaag: 11.5 m/s
89%
20:00
14°
1013.6 hPa 0.3 mm
82%
12.0°
8
Windvlaag: 11.3 m/s
87%
21:00
14°
1013.6 hPa 0.5 mm
27%
12.2°
7
Windvlaag: 10.9 m/s
87%
22:00
14°
1013.6 hPa 0.3 mm
66%
12.0°
7
Windvlaag: 10.7 m/s
87%
23:00
13°
1013.6 hPa
78%
12.0°
7
Windvlaag: 11.2 m/s
80%
 04:26     22:52    Daglengte: 18:26 Morgen
00:00
13°
1013.4 hPa
80%
12.0°
6
Windvlaag: 10.9 m/s
85%
01:00
13°
1013.3 hPa 0.3 mm
82%
12.1°
6
Windvlaag: 9.9 m/s
90%
02:00
13°
1013.0 hPa 0.6 mm
82%
12.1°
6
Windvlaag: 10 m/s
90%
03:00
13°
1012.8 hPa 1.2 mm
82%
12.2°
7
Windvlaag: 10.2 m/s
90%
04:00
13°
1012.6 hPa 1.3 mm
82%
12.1°
6
Windvlaag: 10.6 m/s
89%
05:00
13°
1012.4 hPa 1.2 mm
82%
12.0°
6
Windvlaag: 9.9 m/s
87%
06:00
13°
1012.2 hPa
75%
12.1°
6
Windvlaag: 9.6 m/s
83%
07:00
14°
1012.1 hPa
17%
12.4°
6
Windvlaag: 9.3 m/s
80%
08:00
14°
1012.2 hPa
58%
12.3°
5
Windvlaag: 8.7 m/s
74%
09:00
14°
1012.3 hPa
58%
12.4°
5
Windvlaag: 8.3 m/s
70%
10:00
15°
1012.2 hPa
66%
12.2°
5
Windvlaag: 8.5 m/s
67%
11:00
15°
1012.1 hPa
65%
12.1°
5
Windvlaag: 8.8 m/s
68%
12:00
16°
1012.0 hPa
64%
11.5°
6
Windvlaag: 9.1 m/s
56%
13:00
16°
1011.9 hPa
27%
10.7°
6
Windvlaag: 9.4 m/s
47%
14:00
17°
1011.8 hPa
28%
9.7°
6
Windvlaag: 10.2 m/s
74%
15:00
17°
1011.6 hPa
26%
9.0°
6
Windvlaag: 10.5 m/s
81%
16:00
17°
1011.6 hPa
19%
9.0°
6
Windvlaag: 10.5 m/s
75%
17:00
16°
1011.4 hPa
16%
8.8°
6
Windvlaag: 10.4 m/s
39%
18:00
16°
1011.2 hPa
19%
8.8°
6
Windvlaag: 10.2 m/s
19%
19:00
16°
1011.2 hPa
19%
9.2°
5
Windvlaag: 9.7 m/s
9%
20:00
15°
1011.1 hPa
14%
9.7°
5
Windvlaag: 8.8 m/s
15%
21:00
14°
1011.3 hPa
14%
9.9°
5
Windvlaag: 7.8 m/s
13%
22:00
14°
1011.4 hPa
19%
10.0°
4
Windvlaag: 7.1 m/s
20%
23:00
13°
1011.7 hPa
29%
9.8°
4
Windvlaag: 5.7 m/s
32%
 04:26     22:53    Daglengte: 18:27 Woensdag 19 Jun
00:00
13°
1011.8 hPa
22%
10.2°
4
Windvlaag: 4.9 m/s
70%
01:00
12°
1011.8 hPa
21%
10.3°
3
Windvlaag: 5.2 m/s
60%
02:00
12°
1011.8 hPa
21%
10.5°
3
Windvlaag: 5.3 m/s
59%
03:00
12°
1011.7 hPa
21%
10.4°
3
Windvlaag: 5.2 m/s
63%
04:00
12°
1011.5 hPa
21%
10.4°
2
Windvlaag: 4.5 m/s
68%
05:00
12°
1011.3 hPa
21%
10.6°
2
Windvlaag: 4.1 m/s
45%
06:00
12°
1011.2 hPa
21%
10.6°
2
Windvlaag: 4.2 m/s
46%
07:00
13°
1011.1 hPa
21%
10.5°
1
Windvlaag: 4.1 m/s
38%
08:00
14°
1011.1 hPa
21%
9.7°
2
Windvlaag: 4.2 m/s
65%
09:00
15°
1011.1 hPa
21%
9.4°
1
Windvlaag: 3.1 m/s
80%
10:00
16°
1010.7 hPa
21%
9.3°
1
Windvlaag: 3 m/s
62%
11:00
17°
1010.4 hPa
21%
9.1°
2
Windvlaag: 4.3 m/s
71%
12:00
17°
1010.1 hPa
21%
9.1°
2
Windvlaag: 4.9 m/s
87%
13:00
17°
1009.8 hPa
21%
10.8°
3
Windvlaag: 5.5 m/s
88%
14:00
17°
1009.7 hPa
23%
11.5°
3
Windvlaag: 5.5 m/s
98%
15:00
16°
1009.1 hPa
85%
11.8°
3
Windvlaag: 3.9 m/s
99%
16:00
16°
1008.4 hPa
92%
12.1°
3
Windvlaag: 5.1 m/s
99%
17:00
15°
1007.7 hPa
77%
12.3°
3
Windvlaag: 5.4 m/s
93%
18:00
15°
1006.9 hPa
21%
12.5°
3
Windvlaag: 6.3 m/s
85%
19:00
15°
1006.0 hPa
21%
12.5°
3
Windvlaag: 6.8 m/s
77%
20:00
14°
1005.2 hPa
21%
12.5°
3
Windvlaag: 1 m/s
86%
21:00
14°
1004.7 hPa
21%
12.5°
3
Windvlaag: 4.4 m/s
91%
22:00
14°
1004.1 hPa
22%
12.5°
2
Windvlaag: 2.9 m/s
95%
23:00
14°
1003.4 hPa
37%
12.6°
3
Windvlaag: 2.2 m/s
100%
 04:26     22:53    Daglengte: 18:27 Donderdag 20 Jun
00:00
14°
1002.7 hPa 6.4 mm
100%
12.5°
3
Windvlaag: 3.6 m/s
93%
01:00
14°
1001.7 hPa 7.1 mm
100%
12.5°
3
Windvlaag: 2.1 m/s
90%
Temp/Neerslag /Baro Onweer/Dauwpunt
    Temp Baro Neerslag Dauwpunt Wind Bewolking  
 04:26     22:52    Daglengte: 18:26 Vandaag
02:00
12°
1016.2 hPa   9.9°
3
12%
05:00
12°
1015.2 hPa   8.6°
3
46%
08:00
14°
1014.6 hPa   9.4°
6
78%
11:00
15°
1013.9 hPa   12.8°
8
72%
14:00
15°
1014.1 hPa   12.9°
7
79%
17:00
14°
1013.7 hPa 0.5 mm 11.6°
8
89%
20:00
14°
1013.6 hPa 0.5 mm 12.0°
8
87%
23:00
13°
1013.6 hPa 0.8 mm 12.0°
7
80%
 04:26     22:52    Daglengte: 18:26 Morgen
02:00
13°
1013.0 hPa 0.9 mm 12.1°
6
90%
05:00
13°
1012.4 hPa 3.7 mm 12.0°
6
87%
08:00
14°
1012.2 hPa   12.3°
5
74%
11:00
15°
1012.1 hPa   12.1°
5
68%
14:00
17°
1011.8 hPa   9.7°
6
74%
17:00
16°
1011.4 hPa   8.8°
6
39%
20:00
15°
1011.1 hPa   9.7°
5
15%
23:00
13°
1011.7 hPa   9.8°
4
32%
 04:26     22:53    Daglengte: 18:27 Woensdag 19 Jun
02:00
12°
1011.8 hPa   10.5°
3
59%
05:00
12°
1011.3 hPa   10.6°
2
45%
08:00
14°
1011.1 hPa   9.7°
2
65%
11:00
17°
1010.4 hPa   9.1°
2
71%
14:00
17°
1009.7 hPa   11.5°
3
98%
17:00
15°
1007.7 hPa   12.3°
3
93%
20:00
14°
1005.2 hPa   12.5°
3
86%
23:00
14°
1003.4 hPa   12.6°
3
100%
 04:26     22:53    Daglengte: 18:27 Donderdag 20 Jun
02:00
14°
1000.8 hPa 20.8 mm 12.7°
3
89%
05:00
13°
1003.6 hPa 14.3 mm 11.6°
4
82%
08:00
13°
1004.4 hPa 14.4 mm 11.2°
4
77%
11:00
13°
1006.1 hPa 14.6 mm 10.8°
4
61%
14:00
14°
1007.8 hPa 14.8 mm 10.5°
5
44%
17:00
14°
1008.2 hPa 14.9 mm 10.5°
5
37%
20:00
14°
1008.6 hPa 15.1 mm 10.4°
5
31%
23:00
13°
1008.8 hPa 15.5 mm 10.1°
5
34%
 04:27     22:53    Daglengte: 18:26 Vrijdag 21 Jun
02:00
11°
1008.9 hPa 15.5 mm 9.5°
4
36%
05:00
12°
1009.2 hPa 15.5 mm 9.6°
5
45%
08:00
12°
1009.4 hPa 15.6 mm 9.8°
5
54%
11:00
13°
1010.5 hPa 16.5 mm 9.8°
6
52%
14:00
13°
1011.5 hPa 16.9 mm 9.7°
6
51%
17:00
12°
1012.0 hPa 17.0 mm 9.4°
6
48%
20:00
12°
1012.5 hPa 17.4 mm 9.2°
6
44%
23:00
11°
1013.9 hPa 18.5 mm 9.0°
5
43%
 04:27     22:54    Daglengte: 18:27 Zaterdag 22 Jun
02:00
11°
1015.3 hPa 18.8 mm 8.7°
5
42%
05:00
11°
1016.9 hPa 18.8 mm 8.6°
5
41%
08:00
11°
1018.5 hPa 19.0 mm 8.7°
4
41%
11:00
12°
1019.7 hPa 19.2 mm 8.6°
4
36%
14:00
13°
1020.9 hPa 19.2 mm 8.3°
5
31%
17:00
13°
1021.2 hPa 19.2 mm 8.3°
4
31%
20:00
12°
1021.5 hPa 19.2 mm 8.3°
4
32%
23:00
12°
1022.1 hPa 19.2 mm 8.4°
3
43%
 04:27     22:54    Daglengte: 18:27 Zondag 23 Jun
02:00
11°
1022.8 hPa 19.2 mm 8.5°
2
55%
05:00
11°
1022.7 hPa 19.2 mm 8.4°
2
66%
08:00
11°
1022.7 hPa 19.2 mm 8.4°
2
77%
11:00
13°
1022.8 hPa 19.2 mm 8.3°
3
73%
14:00
14°
1022.9 hPa 19.2 mm 8.2°
3
69%
17:00
14°
1022.1 hPa 19.2 mm 8.7°
3
79%
20:00
14°
1021.3 hPa 19.2 mm 9.1°
3
89%
23:00
13°
1021.3 hPa   9.5°
3
89%
 04:28     22:54    Daglengte: 18:26 Maandag 24 Jun
02:00
12°
1021.3 hPa 38.5 mm 9.8°
2
90%
08:00
13°
1021.2 hPa 38.5 mm 9.5°
3
85%
14:00
16°
1019.8 hPa 38.5 mm 9.0°
5
76%
20:00
15°
1018.3 hPa 38.5 mm 10.2°
5
88%
 04:28     22:54    Daglengte: 18:26 Dinsdag 25 Jun
02:00
13°
1019.0 hPa 38.5 mm 11.4°
3
90%
08:00
14°
1019.4 hPa 38.5 mm 11.4°
3
89%
14:00
16°
1020.3 hPa 38.5 mm 10.5°
4
78%
20:00
15°
1019.5 hPa 38.5 mm 11.2°
4
82%
 04:29     22:53    Daglengte: 18:24 Woensdag 26 Jun
02:00
13°
1018.7 hPa 38.5 mm 11.5°
3
86%
08:00
13°
1019.4 hPa 39.2 mm 10.5°
3
83%
14:00
13°
1006.8 hPa 41.1 mm 10.3°
6
1%
20:00
13°
1018.3 hPa 0.2 mm 9.4°
4
34%
 04:29     22:53    Daglengte: 18:24 Donderdag 27 Jun
02:00
12°
1017.9 hPa 0.2 mm 9.4°
2
35%
08:00
13°
1016.2 hPa 0.4 mm 9.3°
2
51%
14:00
14°
1015.1 hPa 0.3 mm 9.4°
3
54%
20:00
14°
1013.4 hPa 0.9 mm 9.5°
4
46%
 04:30     22:53    Daglengte: 18:23 Vrijdag 28 Jun
02:00
12°
1012.8 hPa 0.3 mm 9.4°
2
44%
08:00
13°
1011.1 hPa 0.5 mm 9.4°
2
44%
14:00
14°
1010.4 hPa 1.0 mm 9.8°
3
45%
20:00
13°
1009.8 hPa 0.7 mm 10.1°
5
41%
 04:31     22:52    Daglengte: 18:21 Zaterdag 29 Jun
02:00
12°
1010.0 hPa 0.4 mm 9.6°
3
46%
08:00
12°
1009.5 hPa 0.5 mm 9.1°
3
49%
14:00
14°
1009.5 hPa 0.2 mm 9.3°
4
43%
20:00
13°
1009.4 hPa 0.2 mm 9.5°
4
42%
 04:32     22:52    Daglengte: 18:20 Zondag 30 Jun
02:00
12°
1009.7 hPa 0.5 mm 9.4°
3
46%
08:00
12°
1009.4 hPa 0.6 mm 8.9°
3
45%
14:00
13°
1009.3 hPa 1.0 mm 9.2°
4
45%
20:00
13°
1009.2 hPa 1.1 mm 9.4°
4
44%
 04:33     22:51    Daglengte: 18:18 Maandag 01 Jul
02:00
12°
1010.0 hPa 0.6 mm 9.3°
3
39%
08:00
12°
1009.9 hPa 0.5 mm 8.8°
2
45%
14:00
13°
1010.4 hPa 0.6 mm 9.4°
4
44%
20:00
13°
1010.4 hPa 0.7 mm 9.4°
5
39%
  CAPE Lifted Index Hail Supercell Tornado SRH 3km CL BTM PRES CL TOP PRES Swiss DWD icon SMHI TS
 04:26     22:52    Daglengte: 18:26 Vandaag
02:00 0 J/kg 6.9 K 0 % 0 % 0 % 0 m²/s² 0 0 10.23 2
03:00 0 J/kg 6.8 K 0 % 0 % 0 % 0 m²/s² 0 0 9.62 1
04:00 0 J/kg 6.5 K 0 % 0 % 0 % 0 m²/s² 0 0 9.02 3
05:00 0 J/kg 4.3 K 0 % 0 % 0 % 0 m²/s² 0 0 6.55 3
06:00 0 J/kg 3.7 K 0 % 0 % 0 % 0 m²/s² 0 0 5.5 3
07:00 0 J/kg 3.3 K 0 % 0 % 0 % 0 m²/s² 0 0 4.77 3
08:00 0 J/kg 2.7 K 0 % 0 % 0 % 0 m²/s² 0 0 2.94 3
09:00 0 J/kg 1.2 K 0 % 0 % 0 % 0 m²/s² 0 0 2.46 3
10:00 6 J/kg 1.7 K 0 % 0 % 0 % 0 m²/s² 0 0 3.47 80
11:00 25 J/kg 1.8 K 0 % 0 % 0 % 0 m²/s² 0 0 2.34 3
12:00 55 J/kg 1.2 K 0 % 0 % 0 % 0 m²/s² 0 0 1.41 3
13:00 22 J/kg 1.8 K 0 % 0 % 0 % 0 m²/s² 0 0 2.04 61
14:00 51 J/kg 1.5 K 0 % 0 % 0 % 0 m²/s² 0 0 1.71 3
15:00 41 J/kg 1.9 K 0 % 0 % 0 % 0 m²/s² 0 0 2.41 61
16:00 25 J/kg 2.4 K 0 % 0 % 0 % 0 m²/s² 0 0 2.85 61
17:00 16 J/kg 2.7 K 0 % 0 % 0 % 0 m²/s² 0 0 3.15 61
18:00 7 J/kg 3.4 K 0 % 0 % 0 % 0 m²/s² 0 0 3.82 3
19:00 8 J/kg 3.4 K 0 % 0 % 0 % 0 m²/s² 0 0 3.82 61
20:00 7 J/kg 2.5 K 0 % 0 % 0 % 0 m²/s² 0 0 3.1 61
21:00 7 J/kg 2.6 K 0 % 0 % 0 % 0 m²/s² 0 0 3.56 3
22:00 4 J/kg 2.7 K 0 % 0 % 0 % 0 m²/s² 0 0 4.38 3
23:00 3 J/kg 2.8 K 0 % 0 % 0 % 0 m²/s² 0 0 5.11 3
 04:26     22:52    Daglengte: 18:26 Morgen
00:00 3 J/kg 2.6 K 0 % 0 % 0 % 0 m²/s² 0 0 4.64 61
01:00 0 J/kg 1.8 K 0 % 0 % 0 % 0 m²/s² 0 0 2.46 80
02:00 2 J/kg 1.2 K 0 % 0 % 0 % 0 m²/s² 0 0 1.32 80
03:00 1 J/kg 1.3 K 0 % 0 % 0 % 0 m²/s² 0 0 1.45 80
04:00 0 J/kg 0.6 K 0 % 0 % 0 % 0 m²/s² 0 0 1.23 80
05:00 19 J/kg 0.2 K 0 % 0 % 0 % 0 m²/s² 0 0 2.06 3
06:00 55 J/kg 1.1 K 0 % 0 % 0 % 0 m²/s² 0 0 4.43 3
07:00 40 J/kg 1.7 K 0 % 0 % 0 % 0 m²/s² 0 0 6.11 3
08:00 54 J/kg 1.9 K 0 % 0 % 0 % 0 m²/s² 0 0 6.52 3
09:00 58 J/kg 1.8 K 0 % 0 % 0 % 0 m²/s² 0 0 6.3 3
10:00 72 J/kg 1.6 K 0 % 0 % 0 % 0 m²/s² 0 0 6.22 3
11:00 58 J/kg 1.6 K 0 % 0 % 0 % 0 m²/s² 0 0 6.37 3
12:00 37 J/kg 2.0 K 0 % 0 % 0 % 0 m²/s² 0 0 6.89 3
13:00 13 J/kg 2.8 K 0 % 0 % 0 % 0 m²/s² 0 0 7.96 3
14:00 1 J/kg 3.4 K 0 % 0 % 0 % 0 m²/s² 0 0 8.56 3
15:00 0 J/kg 4.2 K 0 % 0 % 0 % 0 m²/s² 0 0 8.85 3
16:00 0 J/kg 4.7 K 0 % 0 % 0 % 0 m²/s² 0 0 9.89 3
17:00 0 J/kg 5.6 K 0 % 0 % 0 % 0 m²/s² 0 0 11.21 3
18:00 0 J/kg 5.8 K 0 % 0 % 0 % 0 m²/s² 0 0 11.92 3
19:00 0 J/kg 5.8 K 0 % 0 % 0 % 0 m²/s² 0 0 12.1 2
20:00 0 J/kg 5.7 K 0 % 0 % 0 % 0 m²/s² 0 0 12.03 0
21:00 0 J/kg 5.6 K 0 % 0 % 0 % 0 m²/s² 0 0 11.93 1
22:00 0 J/kg 5.8 K 0 % 0 % 0 % 0 m²/s² 0 0 11.98 2
23:00 0 J/kg 6.6 K 0 % 0 % 0 % 0 m²/s² 0 0 12.45 1
 04:26     22:53    Daglengte: 18:27 Woensdag 19 Jun
00:00 0 J/kg 7.1 K 0 % 0 % 0 % 0 m²/s² 0 0 11.96 1
01:00 0 J/kg 7.6 K 0 % 0 % 0 % 0 m²/s² 0 0 10.33 0
02:00 0 J/kg 7.9 K 0 % 0 % 0 % 0 m²/s² 0 0 8.92 0
03:00 0 J/kg 8.2 K 0 % 0 % 0 % 0 m²/s² 0 0 8.44 3
04:00 0 J/kg 7.4 K 0 % 0 % 0 % 0 m²/s² 0 0 7.58 3
05:00 0 J/kg 7.5 K 0 % 0 % 0 % 0 m²/s² 0 0 7.68 1
06:00 0 J/kg 7.6 K 0 % 0 % 0 % 0 m²/s² 0 0 7.84 1
07:00 0 J/kg 7.2 K 0 % 0 % 0 % 0 m²/s² 0 0 7.38 1
08:00 0 J/kg 7.0 K 0 % 0 % 0 % 0 m²/s² 0 0 7.18 1
09:00 0 J/kg 7.2 K 0 % 0 % 0 % 0 m²/s² 0 0 7.38 0
10:00 0 J/kg 7.6 K 0 % 0 % 0 % 0 m²/s² 0 0 7.93 0
11:00 1 J/kg 7.0 K 0 % 0 % 0 % 0 m²/s² 0 0 7.03 2
12:00 0 J/kg 6.3 K 0 % 0 % 0 % 0 m²/s² 0 0 6.6 2
13:00 0 J/kg 5.0 K 0 % 0 % 0 % 0 m²/s² 0 0 5.42 3
14:00 0 J/kg 4.3 K 0 % 0 % 0 % 0 m²/s² 0 0 4.3 3
15:00 0 J/kg 4.1 K 0 % 0 % 0 % 0 m²/s² 0 0 4.1 3
16:00 0 J/kg 3.7 K 0 % 0 % 0 % 0 m²/s² 0 0 3.73 3
17:00 0 J/kg 2.4 K 0 % 0 % 0 % 0 m²/s² 0 0 2.4 2
18:00 1 J/kg 2.0 K 0 % 0 % 0 % 0 m²/s² 0 0 2.27 2
19:00 1 J/kg 1.5 K 0 % 0 % 0 % 0 m²/s² 0 0 2.43 1
20:00 0 J/kg 0.6 K 0 % 0 % 0 % 0 m²/s² 0 0 2.31 3
21:00 0 J/kg -0.8 K 0 % 0 % 0 % 0 m²/s² 0 0 0.82 3
22:00 0 J/kg -0.4 K 0 % 0 % 0 % 0 m²/s² 0 0 -0.4 2
23:00 0 J/kg -0.8 K 0 % 0 % 0 % 0 m²/s² 0 0 -0.8 3
 04:26     22:53    Daglengte: 18:27 Donderdag 20 Jun
00:00 0 J/kg -1.6 K 0 % 0 % 0 % 0 m²/s² 0 0 -0.91 80
01:00 0 J/kg -1.9 K 0 % 0 % 0 % 0 m²/s² 0 0 -0.82 61
Temp Baro Wind Neerslag
  EWN Forecast EWN WRFDA DWD ICON FMI HIRLAM MET Norway GFS
 04:26     22:52    Daglengte: 18:26 Vandaag
02:00 12.0° 1016.2 hPa 3.2 m/s 0.0 mm 9.3° 1015.2 hPa 4.3 m/s 0.0 mm 13.1° 1016.7 hPa 1.3 m/s -2.0 mm 11.5° 1016.0 hPa 4.5 m/s 0.0 mm 12.0° 1016.2 hPa 2.1 m/s 0.0 mm 11.4° 1016.2 hPa 3.6 m/s
05:00 12.1° 1015.2 hPa 3.5 m/s 0.0 mm 9.3° 1014.2 hPa 4.9 m/s 0.0 mm 13.0° 1015.2 hPa 2.2 m/s 0.0 mm 11.8° 1014.9 hPa 4.7 m/s 0.0 mm 12.1° 1015.3 hPa 2.0 m/s 0.0 mm 11.3° 1015.4 hPa 3.4 m/s
08:00 14.2° 1014.6 hPa 5.9 m/s 0.0 mm 12.9° 1013.5 hPa 8.0 m/s 0.0 mm 14.0° 1014.7 hPa 3.3 m/s 0.1 mm 13.8° 1013.3 hPa 6.3 m/s 0.0 mm 14.9° 1014.9 hPa 5.6 m/s 0.0 mm 12.8° 1014.5 hPa 5.0 m/s
11:00 15.4° 1013.9 hPa 7.8 m/s 0.0 mm 14.5° 1013.6 hPa 8.4 m/s 0.0 mm 15.7° 1014.8 hPa 7.0 m/s 0.6 mm 13.9° 1011.5 hPa 8.0 m/s 0.0 mm 15.6° 1014.2 hPa 6.9 m/s 0.0 mm 13.4° 1014.3 hPa 7.0 m/s
14:00 15.1° 1014.1 hPa 7.5 m/s 0.0 mm 14.7° 1013.6 hPa 8.3 m/s 0.2 mm 15.5° 1014.7 hPa 7.1 m/s 0.5 mm 13.6° 1011.4 hPa 7.0 m/s 0.0 mm 15.6° 1014.6 hPa 6.8 m/s 0.0 mm 13.3° 1014.4 hPa 7.3 m/s
17:00 14.5° 1013.7 hPa 7.8 m/s 0.5 mm 14.6° 1013.5 hPa 9.1 m/s 0.3 mm 14.2° 1013.6 hPa 7.3 m/s 0.8 mm 13.7° 1011.1 hPa 8.1 m/s 0.0 mm 15.9° 1014.2 hPa 6.5 m/s 0.0 mm 13.2° 1014.3 hPa 8.0 m/s
20:00 13.9° 1013.6 hPa 7.9 m/s 0.5 mm 13.0° 1012.9 hPa 8.5 m/s 0.3 mm 13.4° 1013.6 hPa 8.7 m/s 0.9 mm 14.2° 1011.1 hPa 8.3 m/s 0.0 mm 14.1° 1014.1 hPa 5.9 m/s 0.6 mm 12.7° 1013.8 hPa 8.3 m/s
23:00 13.4° 1013.6 hPa 6.7 m/s 0.8 mm 12.3° 1013.1 hPa 7.4 m/s 0.5 mm 13.5° 1014.1 hPa 5.9 m/s 0.1 mm 13.7° 1011.9 hPa 7.1 m/s 0.0 mm 13.2° 1013.6 hPa 6.2 m/s 1.6 mm 12.2° 1014.4 hPa 7.0 m/s
 04:26     22:52    Daglengte: 18:26 Morgen
02:00 13.4° 1013.0 hPa 6.4 m/s 0.9 mm 12.4° 1012.3 hPa 8.3 m/s 1.6 mm 13.3° 1013.1 hPa 6.8 m/s 1.1 mm 13.5° 1011.9 hPa 6.1 m/s 0.0 mm 13.4° 1013.1 hPa 5.0 m/s 1.8 mm 12.3° 1013.5 hPa 6.3 m/s
05:00 13.0° 1012.4 hPa 6.1 m/s 3.7 mm 12.6° 1011.0 hPa 7.2 m/s 11.0 mm 12.9° 1012.7 hPa 6.5 m/s 1.2 mm 13.1° 1011.6 hPa 5.5 m/s 0.0 mm 12.9° 1012.5 hPa 4.6 m/s 0.0 mm 12.2° 1012.5 hPa 6.1 m/s
08:00 14.0° 1012.2 hPa 5.3 m/s 0.0 mm 13.0° 1011.3 hPa 6.3 m/s 12.6 mm 14.0° 1012.6 hPa 5.5 m/s 0.1 mm 13.3° 1011.5 hPa 4.9 m/s 0.0 mm 14.5° 1012.5 hPa 4.4 m/s 0.0 mm 12.7° 1012.2 hPa 5.2 m/s
11:00 15.3° 1012.1 hPa 5.3 m/s 0.0 mm 14.7° 1011.6 hPa 6.3 m/s 12.7 mm 15.7° 1012.5 hPa 5.3 m/s 0.1 mm 13.9° 1011.6 hPa 5.1 m/s 0.0 mm 17.2° 1012.6 hPa 4.3 m/s 0.0 mm 14.1° 1012.3 hPa 6.5 m/s
14:00 16.7° 1011.8 hPa 5.8 m/s 0.0 mm 15.7° 1011.2 hPa 7.6 m/s 12.7 mm 17.0° 1012.1 hPa 6.1 m/s 0.0 mm 15.6° 1011.5 hPa 5.2 m/s 0.0 mm 20.1° 1012.2 hPa 5.2 m/s 0.0 mm 14.3° 1011.7 hPa 7.2 m/s
17:00 16.4° 1011.4 hPa 6.0 m/s 0.0 mm 15.1° 1011.3 hPa 7.3 m/s 12.7 mm 16.4° 1011.5 hPa 6.5 m/s 0.0 mm 15.7° 1011.1 hPa 4.8 m/s 0.0 mm 19.4° 1012.1 hPa 5.4 m/s 0.0 mm 13.8° 1011.6 hPa 7.7 m/s
20:00 15.1° 1011.1 hPa 5.0 m/s 0.0 mm 13.7° 1010.6 hPa 5.9 m/s 12.7 mm 15.1° 1011.3 hPa 5.4 m/s 0.0 mm 14.1° 1010.7 hPa 4.2 m/s 0.0 mm 16.9° 1011.9 hPa 4.4 m/s 0.0 mm 12.9° 1011.5 hPa 6.0 m/s
23:00 13.3° 1011.7 hPa 4.1 m/s 0.0 mm 11.7° 1011.4 hPa 4.4 m/s 12.7 mm 13.4° 1012.1 hPa 4.3 m/s 0.0 mm 13.9° 1011.8 hPa 2.4 m/s 0.0 mm 11.8° 1012.4 hPa 4.3 m/s
 04:26     22:53    Daglengte: 18:27 Woensdag 19 Jun
02:00 11.9° 1011.8 hPa 3.1 m/s 0.0 mm 11.8° 1010.5 hPa 4.0 m/s 12.7 mm 12.7° 1012.1 hPa 2.8 m/s 0.0 mm 11.4° 1012.0 hPa 2.2 m/s 0.0 mm 11.3° 1012.4 hPa 4.1 m/s
05:00 11.8° 1011.3 hPa 2.0 m/s 0.0 mm 12.0° 1010.4 hPa 4.1 m/s 12.7 mm 12.6° 1011.8 hPa 1.5 m/s 0.0 mm 10.2° 1011.5 hPa 0.6 m/s 0.0 mm 11.5° 1012.3 hPa 3.4 m/s
08:00 13.7° 1011.1 hPa 1.6 m/s 0.0 mm 13.6° 1010.0 hPa 4.5 m/s 12.7 mm 13.8° 1012.2 hPa 0.9 m/s 0.0 mm 13.8° 1011.2 hPa 0.7 m/s 0.0 mm 12.3° 1011.6 hPa 2.0 m/s
11:00 16.6° 1010.4 hPa 1.6 m/s 0.0 mm 14.9° 1009.3 hPa 3.3 m/s 12.7 mm 15.5° 1011.9 hPa 0.9 m/s 0.0 mm 17.7° 1010.3 hPa 1.5 m/s 0.0 mm 13.2° 1011.7 hPa 1.1 m/s
14:00 16.8° 1009.7 hPa 2.7 m/s 0.0 mm 13.8° 1007.6 hPa 2.7 m/s 12.8 mm 16.5° 1010.2 hPa 1.7 m/s 0.0 mm 17.6° 1009.9 hPa 3.0 m/s 0.0 mm 13.1° 1010.7 hPa 2.0 m/s
17:00 15.5° 1007.7 hPa 2.8 m/s 0.0 mm 11.9° 1006.3 hPa 3.0 m/s 26.5 mm 16.4° 1008.9 hPa 2.4 m/s 0.1 mm 15.8° 1007.6 hPa 2.9 m/s 13.0° 1009.3 hPa 2.8 m/s
20:00 14.3° 1005.2 hPa 2.8 m/s 0.0 mm 13.7° 1002.6 hPa 3.4 m/s 42.3 mm 16.4° 1006.2 hPa 2.5 m/s 0.0 mm 13.9° 1005.4 hPa 2.8 m/s 12.3° 1006.6 hPa 3.4 m/s
23:00 13.9° 1003.4 hPa 2.5 m/s 0.0 mm 13.5° 1001.2 hPa 2.0 m/s 46.9 mm 15.2° 1003.5 hPa 1.3 m/s 0.0 mm 13.8° 1003.8 hPa 3.3 m/s 12.1° 1004.9 hPa 3.0 m/s
 04:26     22:53    Daglengte: 18:27 Donderdag 20 Jun
02:00 13.7° 1000.8 hPa 3.1 m/s 20.8 mm 12.3° 997.4 hPa 1.4 m/s 55.6 mm 14.9° 999.9 hPa 2.6 m/s 3.4 mm 13.6° 1002.2 hPa 3.8 m/s 13.7° 1001.1 hPa 4.8 m/s
05:00 13.1° 1003.6 hPa 3.7 m/s 14.3 mm 13.0° 1004.0 hPa 3.3 m/s 14.4° 999.1 hPa 7.3 m/s 14.3 mm
08:00 12.8° 1004.4 hPa 3.5 m/s 14.4 mm 12.7° 1004.9 hPa 3.1 m/s 14.2° 998.6 hPa 8.2 m/s 14.4 mm
11:00 13.3° 1006.1 hPa 4.4 m/s 14.6 mm 13.4° 1006.5 hPa 4.1 m/s 11.9° 1002.0 hPa 7.9 m/s 14.6 mm
14:00 14.0° 1007.8 hPa 5.1 m/s 14.8 mm 14.2° 1008.0 hPa 5.1 m/s 12.1° 1005.1 hPa 5.1 m/s 14.8 mm
17:00 13.9° 1008.2 hPa 4.9 m/s 14.9 mm 14.0° 1008.4 hPa 4.9 m/s 12.6° 1007.0 hPa 4.1 m/s 14.9 mm
20:00 13.7° 1008.6 hPa 4.7 m/s 15.1 mm 13.8° 1008.7 hPa 4.8 m/s 12.5° 1007.4 hPa 4.0 m/s 15.1 mm
23:00 12.5° 1008.8 hPa 4.7 m/s 15.5 mm 12.6° 1008.8 hPa 4.6 m/s 11.7° 1008.5 hPa 5.7 m/s 15.5 mm
 04:27     22:53    Daglengte: 18:26 Vrijdag 21 Jun
02:00 11.4° 1008.9 hPa 4.4 m/s 15.5 mm 11.4° 1008.9 hPa 4.4 m/s 10.9° 1009.2 hPa 4.7 m/s 15.5 mm
05:00 11.7° 1009.2 hPa 4.8 m/s 15.5 mm 11.8° 1009.1 hPa 4.8 m/s 10.8° 1009.8 hPa 5.1 m/s 15.5 mm
08:00 12.1° 1009.4 hPa 5.1 m/s 15.6 mm 12.1° 1009.4 hPa 5.1 m/s 12.2° 1009.6 hPa 4.6 m/s 15.6 mm
11:00 12.6° 1010.5 hPa 5.6 m/s 16.5 mm 12.5° 1010.5 hPa 5.5 m/s 13.2° 1010.1 hPa 5.6 m/s 16.5 mm
14:00 13.0° 1011.5 hPa 6.0 m/s 16.9 mm 12.9° 1011.6 hPa 6.0 m/s 13.6° 1010.3 hPa 5.6 m/s 16.9 mm
17:00 12.4° 1012.0 hPa 5.9 m/s 17.0 mm 12.4° 1012.1 hPa 5.8 m/s 13.3° 1010.5 hPa 5.9 m/s 17.0 mm
20:00 11.9° 1012.5 hPa 5.6 m/s 17.4 mm 11.8° 1012.6 hPa 5.7 m/s 12.9° 1011.1 hPa 4.0 m/s 17.4 mm
23:00 11.2° 1013.9 hPa 5.3 m/s 18.5 mm 11.2° 1014.0 hPa 5.3 m/s 11.4° 1012.8 hPa 4.4 m/s 18.5 mm
 04:27     22:54    Daglengte: 18:27 Zaterdag 22 Jun
02:00 10.6° 1015.3 hPa 5.0 m/s 18.8 mm 10.6° 1015.4 hPa 5.0 m/s 10.9° 1013.8 hPa 4.7 m/s 18.8 mm
05:00 10.9° 1016.9 hPa 4.5 m/s 18.8 mm 11.0° 1017.0 hPa 4.6 m/s 10.4° 1015.1 hPa 3.5 m/s 18.8 mm
08:00 11.3° 1018.5 hPa 4.1 m/s 19.0 mm 11.4° 1018.7 hPa 4.2 m/s 10.7° 1016.5 hPa 3.1 m/s 19.0 mm
11:00 12.1° 1019.7 hPa 4.5 m/s 19.2 mm 12.2° 1019.9 hPa 4.5 m/s 10.8° 1017.9 hPa 4.5 m/s 19.2 mm
14:00 12.8° 1020.9 hPa 4.7 m/s 19.2 mm 13.0° 1021.1 hPa 4.8 m/s 11.0° 1019.1 hPa 3.4 m/s 19.2 mm
17:00 12.6° 1021.2 hPa 4.2 m/s 19.2 mm 12.8° 1021.4 hPa 4.2 m/s 11.2° 1019.3 hPa 3.8 m/s 19.2 mm
20:00 12.4° 1021.5 hPa 3.7 m/s 19.2 mm 12.5° 1021.7 hPa 3.6 m/s 11.0° 1019.2 hPa 5.2 m/s 19.2 mm
23:00 11.7° 1022.1 hPa 2.9 m/s 19.2 mm 11.8° 1022.4 hPa 2.8 m/s 10.6° 1019.9 hPa 4.1 m/s 19.2 mm
 04:27     22:54    Daglengte: 18:27 Zondag 23 Jun
02:00 10.9° 1022.8 hPa 2.2 m/s 19.2 mm 11.0° 1023.0 hPa 1.9 m/s 10.3° 1020.0 hPa 5.6 m/s 19.2 mm
05:00 11.1° 1022.7 hPa 2.2 m/s 19.2 mm 11.2° 1023.0 hPa 1.9 m/s 10.0° 1019.7 hPa 5.8 m/s 19.2 mm
08:00 11.4° 1022.7 hPa 2.1 m/s 19.2 mm 11.5° 1022.9 hPa 1.8 m/s 10.2° 1020.0 hPa 5.5 m/s 19.2 mm
11:00 12.9° 1022.8 hPa 2.7 m/s 19.2 mm 13.1° 1023.0 hPa 2.4 m/s 11.1° 1019.8 hPa 6.3 m/s 19.2 mm
14:00 14.4° 1022.9 hPa 3.3 m/s 19.2 mm 14.7° 1023.2 hPa 2.9 m/s 11.5° 1020.1 hPa 7.6 m/s 19.2 mm
17:00 14.4° 1022.1 hPa 3.1 m/s 19.2 mm 14.6° 1022.3 hPa 2.6 m/s 11.6° 1019.9 hPa 8.2 m/s 19.2 mm
20:00 14.3° 1021.3 hPa 2.8 m/s 19.2 mm 14.5° 1021.4 hPa 2.3 m/s 11.7° 1019.8 hPa 8.8 m/s 19.2 mm
23:00 13.1° 1021.3 hPa 2.7 m/s 19.2 mm 13.3° 1021.4 hPa 2.1 m/s 11.2° 1020.4 hPa 9.4 m/s 19.2 mm
 04:28     22:54    Daglengte: 18:26 Maandag 24 Jun
02:00 12.0° 1021.3 hPa 2.5 m/s 19.2 mm 12.1° 1021.4 hPa 1.9 m/s 11.0° 1020.6 hPa 8.5 m/s 19.2 mm
08:00 12.8° 1021.2 hPa 2.8 m/s 19.2 mm 13.0° 1021.3 hPa 2.4 m/s 10.8° 1020.6 hPa 7.2 m/s 19.2 mm
14:00 15.8° 1019.8 hPa 4.6 m/s 19.2 mm 16.1° 1019.8 hPa 4.2 m/s 12.4° 1019.8 hPa 8.6 m/s 19.2 mm
20:00 15.0° 1018.3 hPa 5.0 m/s 19.2 mm 15.3° 1018.3 hPa 4.7 m/s 12.2° 1018.7 hPa 8.7 m/s 19.2 mm
 04:28     22:54    Daglengte: 18:26 Dinsdag 25 Jun
02:00 13.5° 1019.0 hPa 2.7 m/s 19.2 mm 13.7° 1019.1 hPa 2.6 m/s 11.2° 1018.2 hPa 4.0 m/s 19.2 mm
08:00 14.0° 1019.4 hPa 3.2 m/s 19.2 mm 14.2° 1019.7 hPa 3.1 m/s 12.1° 1016.5 hPa 3.8 m/s 19.2 mm
14:00 15.5° 1020.3 hPa 4.1 m/s 19.2 mm 15.6° 1020.7 hPa 4.3 m/s 14.5° 1015.6 hPa 2.4 m/s 19.2 mm
20:00 15.2° 1019.5 hPa 4.1 m/s 19.2 mm 15.3° 1020.1 hPa 4.1 m/s 14.7° 1013.4 hPa 4.3 m/s 19.2 mm
 04:29     22:53    Daglengte: 18:24 Woensdag 26 Jun
02:00 13.3° 1018.7 hPa 3.1 m/s 19.2 mm 13.3° 1019.3 hPa 3.2 m/s 12.8° 1011.6 hPa 2.2 m/s 19.2 mm
08:00 12.7° 1019.4 hPa 3.2 m/s 19.8 mm 12.7° 1020.4 hPa 3.1 m/s 12.6° 1009.0 hPa 4.1 m/s 19.8 mm
14:00 13.0° 1006.8 hPa 5.7 m/s 20.9 mm 13.0° 1006.8 hPa 5.7 m/s 20.9 mm
20:00 13.5° 1018.3 hPa 4.0 m/s 0.2 mm
 04:29     22:53    Daglengte: 18:24 Donderdag 27 Jun
02:00 12.4° 1017.9 hPa 2.2 m/s 0.2 mm
08:00 12.8° 1016.2 hPa 1.8 m/s 0.4 mm
14:00 14.0° 1015.1 hPa 2.7 m/s 0.3 mm
20:00 13.6° 1013.4 hPa 3.5 m/s 0.9 mm
 04:30     22:53    Daglengte: 18:23 Vrijdag 28 Jun
02:00 12.4° 1012.8 hPa 2.2 m/s 0.3 mm
08:00 12.7° 1011.1 hPa 2.1 m/s 0.5 mm
14:00 13.8° 1010.4 hPa 3.4 m/s 1.0 mm
20:00 13.4° 1009.8 hPa 4.9 m/s 0.7 mm
 04:31     22:52    Daglengte: 18:21 Zaterdag 29 Jun
02:00 12.2° 1010.0 hPa 3.5 m/s 0.4 mm
08:00 12.2° 1009.5 hPa 2.7 m/s 0.5 mm
14:00 13.6° 1009.5 hPa 3.9 m/s 0.2 mm
20:00 13.2° 1009.4 hPa 4.0 m/s 0.2 mm
 04:32     22:52    Daglengte: 18:20 Zondag 30 Jun
02:00 12.0° 1009.7 hPa 3.3 m/s 0.5 mm
08:00 12.2° 1009.4 hPa 3.2 m/s 0.6 mm
14:00 13.3° 1009.3 hPa 4.2 m/s 1.0 mm
20:00 12.9° 1009.2 hPa 4.3 m/s 1.1 mm
 04:33     22:51    Daglengte: 18:18 Maandag 01 Jul
02:00 11.9° 1010.0 hPa 2.7 m/s 0.6 mm
08:00 12.2° 1009.9 hPa 2.4 m/s 0.5 mm
14:00 13.5° 1010.4 hPa 4.4 m/s 0.6 mm
20:00 13.1° 1010.4 hPa 4.7 m/s 0.7 mm
FMI Hirlam - 7.5 km EWN WRFDA - 12 km DWD ICON - 7 km GFS - 25 km Basiskaart






























































Updatetijd (Europe/Amsterdam) Resolutie Lengte Stap
FMI Hirlam 01:15, 07:15, 13:15, 19:15 7.5 km 49h 1h
EWN WRFDA 22:15, 04:15, 10:15, 16:15 12 km 73h 1h
DWD ICON 23:45, 05:45, 11:45, 17:45 7 km 75h 1h
GFS 20:30, 02:30, 08:30, 14:30 25 km 237h 3h
30+ mm
25-30 mm
20-25 mm
15-20 mm
10-15 mm
6-10 mm
4-6 mm
2-4 mm
1-2 mm
0.5-1 mm
0.2-0.5 mm
0.1-0.2 mm
30+ mm
25-30 mm
20-25 mm
15-20 mm
10-15 mm
6-10 mm
4-6 mm
2-4 mm
1-2 mm
0.5-1 mm
0.2-0.5 mm
0.1-0.2 mm
Sneeuwval
Natte sneeuw
Hagel
Vorst
30+ mm
25-30 mm
20-25 mm
15-20 mm
10-15 mm
6-10 mm
4-6 mm
2-4 mm
1-2 mm
0.5-1 mm
0.2-0.5 mm
0.1-0.2 mm
Sneeuwval
Natte sneeuw
Hagel
Vorst
Onweer
50 mm
40 mm
30 mm
26 mm
22 mm
18 mm
14 mm
10 mm
9 mm
8 mm
7 mm
6 mm
5 mm
4.5 mm
4 mm
3.5 mm
3 mm
2.5 mm
2 mm
1.5 mm
1 mm
0.8 mm
0.6 mm
0.4 mm
0.2 mm
0.05 mm
35°
30°
25°
20°
15°
10°
-5°
-10°
-15°
-20°
-25°
-30°
-35°
33> m/s
29 m/s
25 m/s
21 m/s
17 m/s
14 m/s
11 m/s
8 m/s
5 m/s
3 m/s
0 m/s
2600 J/kg
2400 J/kg
2200 J/kg
2000 J/kg
1800 J/kg
1600 J/kg
1400 J/kg
1200 J/kg
1000 J/kg
800 J/kg
600 J/kg
400 J/kg
200 J/kg
70 dBZ
65 dBZ
60 dBZ
55 dBZ
50 dBZ
45 dBZ
40 dBZ
35 dBZ
30 dBZ
25 dBZ
20 dBZ
15 dBZ
10 dBZ
5 dBZ
-1 K
-2 K
-3 K
-4 K
-5 K
-6 K
-7 K
-8 K
-9 K
950 m²/s²
900 m²/s²
850 m²/s²
800 m²/s²
750 m²/s²
700 m²/s²
650 m²/s²
600 m²/s²
550 m²/s²
500 m²/s²
450 m²/s²
400 m²/s²
350 m²/s²
300 m²/s²
250 m²/s²
200 m²/s²
150 m²/s²
100 m²/s²
46 m/s
44 m/s
42 m/s
40 m/s
38 m/s
36 m/s
34 m/s
32 m/s
30 m/s
28 m/s
26 m/s
24 m/s
22 m/s
20 m/s
16 m/s
12 m/s
8 m/s
4 m/s
30 m/s
28 m/s
26 m/s
24 m/s
22 m/s
20 m/s
18 m/s
16 m/s
14 m/s
12 m/s
10 m/s
8 m/s
6 m/s
4 m/s
2 m/s
3.0
2.8
2.6
2.4
2.2
2.0
1.8
1.6
1.4
1.2
1.0
0.8
0.6
0.4
0.2
15
14
13
12
11
10
9
8
7
6
5
4
3
2
1
90%
80%
70%
60%
50%
40%
30%
20%
10%
42
40
38
36
34
32
30
28
26
24
22
20
18
16
14
12
90+ cm
80-90 cm
70-80 cm
60-70 cm
50-60 cm
40-50 cm
30-40 cm
20-30 cm
10-20 cm
1-10 cm
Sneeuwval
Natte sneeuw
Regen
>120 mm
115 mm
110 mm
105 mm
100 mm
95 mm
90 mm
85 mm
80 mm
75 mm
70 mm
65 mm
60 mm
55 mm
50 mm
45 mm
45 mm
40 mm
35 mm